CDT,Max TemperatureF,Mean TemperatureF,Min TemperatureF,Max Dew PointF,MeanDew PointF,Min DewpointF,Max Humidity, Mean Humidity, Min Humidity, Max Sea Level PressureIn, Mean Sea Level PressureIn, Min Sea Level PressureIn, Max VisibilityMiles, Mean VisibilityMiles, Min VisibilityMiles, Max Wind SpeedMPH, Mean Wind SpeedMPH, Max Gust SpeedMPH,PrecipitationIn, CloudCover, Events, WindDirDegrees
2013-5-1,84,74,64,65,63,61,93,70,47,29.94,29.84,29.77,10,10,7,13,8,16,0.00,5,,133
2013-5-2,68,56,44,63,46,35,87,75,63,30.35,30.17,29.91,10,10,7,29,19,40,T,7,Rain,344
2013-5-3,68,54,40,36,29,23,76,47,17,30.33,30.21,30.04,10,10,10,28,14,39,0.00,0,,330
2013-5-4,81,58,34,38,31,27,82,49,15,30.04,29.96,29.87,10,10,7,23,9,28,0.00,0,,302
2013-5-5,73,57,40,45,40,35,82,58,33,30.17,30.08,30.02,10,10,10,18,7,23,0.00,0,,354
2013-5-6,76,59,42,56,47,41,93,66,38,30.13,30.07,30.00,10,10,10,8,3,12,T,1,,295
2013-5-7,85,66,47,54,50,47,100,65,29,30.08,30.00,29.91,10,10,10,14,6,16,0.00,0,,181
2013-5-8,86,74,62,62,57,53,90,64,37,30.01,29.94,29.87,10,10,8,24,13,28,T,0,,176
2013-5-9,73,68,63,68,65,57,100,83,66,29.97,29.92,29.83,10,8,2,24,8,29,0.74,7,Rain-Thunderstorm,123
2013-5-10,84,73,61,67,64,58,100,77,54,30.04,29.94,29.86,10,5,1,18,7,23,0.04,6,Rain-Thunderstorm,22
2013-5-11,81,69,56,60,54,47,97,65,32,30.15,30.08,30.00,10,10,9,21,9,26,0.00,1,,356
2013-5-12,80,66,51,52,47,42,80,53,26,30.26,30.19,30.13,10,10,10,16,6,21,0.00,0,,17
2013-5-13,86,66,45,56,48,43,93,58,23,30.25,30.19,30.13,10,10,10,14,8,17,0.00,0,,190
2013-5-14,86,74,62,65,57,53,84,60,35,30.17,30.10,29.99,10,10,10,24,14,30,0.00,0,,184
2013-5-15,82,73,63,70,67,64,90,80,69,30.08,29.95,29.71,10,8,1,44,18,54,0.61,6,Rain-Thunderstorm,167
2013-5-16,85,74,63,71,65,61,93,77,61,29.91,29.81,29.72,10,8,1,25,12,32,0.09,4,Rain-Thunderstorm,168
2013-5-17,89,81,73,72,71,68,93,74,55,29.86,29.81,29.76,10,6,2,23,14,28,0.00,5,,165
2013-5-18,93,82,71,71,68,64,90,70,49,29.91,29.83,29.76,10,6,4,25,17,32,0.00,2,,171
2013-5-19,90,81,71,70,67,64,84,68,51,29.84,29.77,29.70,10,9,6,25,18,31,0.00,4,,170
2013-5-20,92,83,74,70,69,66,87,67,47,29.81,29.77,29.68,10,9,7,23,16,30,0.00,5,,166
2013-5-21,89,73,56,71,66,58,90,73,56,29.88,29.76,29.67,10,7,0,25,14,33,1.11,7,Fog-Rain-Thunderstorm,219
2013-5-22,88,70,52,63,57,52,100,68,36,29.96,29.89,29.82,10,5,0,7,4,13,0.00,2,Fog,83
2013-5-23,85,79,73,72,70,66,93,79,65,30.04,29.95,29.87,10,5,2,17,9,21,0.00,6,,138
2013-5-24,85,76,67,73,69,64,93,77,61,30.20,30.09,29.98,10,7,1,24,9,33,0.62,5,Rain-Thunderstorm,184
2013-5-25,84,76,67,72,69,66,100,81,62,30.15,30.10,30.03,10,10,8,25,9,29,T,6,,151
2013-5-26,89,81,72,70,70,67,93,74,55,30.08,30.02,29.93,10,9,7,20,13,25,T,6,Rain,171
2013-5-27,89,81,72,70,68,66,90,70,50,29.99,29.92,29.80,10,10,10,22,15,28,0.00,5,,176
2013-5-28,90,82,73,69,68,66,84,66,47,29.89,29.83,29.75,10,10,10,25,17,33,0.00,4,,166
2013-5-29,86,80,74,74,70,68,88,79,69,29.81,29.77,29.70,10,10,2,33,16,46,0.15,5,Rain-Thunderstorm,152
2013-5-30,91,83,75,72,71,69,82,69,55,29.82,29.77,29.70,10,10,10,25,15,33,T,6,Rain,174
2013-5-31,91,84,76,72,71,70,87,72,56,29.83,29.78,29.70,10,10,10,25,17,32,0.00,5,,178